Weather History for Bigfork, MN

Change the Weather History Date:

Friday, February 8, 2013

  Actual Average (KGPZ) Record (KGPZ)
Temperature  
Mean Temperature 8 °F -  
Max Temperature 26 °F 23 °F 50 °F (1987)
Min Temperature -11 °F -2 °F -42 °F (1933)
Degree Days  
Heating Degree Days 58    
Moisture  
Dew Point 4 °F    
Average Humidity 73    
Maximum Humidity 86    
Minimum Humidity 55    
Precipitation  
Precipitation 0.00 in - - ()
Sea Level Pressure  
Sea Level Pressure 30.24 in    
Wind  
Wind Speed 3 mph (SSE)    
Max Wind Speed 12 mph    
Max Gust Speed 16 mph    
Visibility 10 miles    
Events      
Averages and records for this station are not official NWS values.
T = Trace of Precipitation, MM = Missing Value Source: NWS Daily Summary

Daily Weather History Graph

Daily Weather History Graph

Search for Another Location

Airport:

Trip Planner

Search our weather history database for the weather conditions in past years. The results will help you decide how hot, cold, wet, or windy it might be!

Date:

Astronomy

Feb. 08, 2013 Rise Set
Actual Time 7:31 AM CST 5:26 PM CST
Civil Twilight 6:58 AM CST 5:59 PM CST
Nautical Twilight 6:22 AM CST 6:35 PM CST
Astronomical Twilight 5:46 AM CST 7:11 PM CST
Moon 6:04 AM CST (2/8) 3:58 PM CST (2/8)
Length of Visible Light 11h 00m
Length of Day
9h 55m
Waning Crescent, 3% of the Moon is Illuminated
Feb 8
Waning Crescent
Feb 10
New
Feb 17
First Quarter
Feb 25
Full
Mar 4
Last Quarter

Hourly Weather History & Observations

Time (CST) Temp. Windchill Dew Point Humidity Pressure Visibility Wind Dir Wind Speed Gust Speed Precip Events Conditions
12:33 AM -5.8 °F - -11.2 °F 77% 30.27 in 10.0 mi Calm Calm - N/A   Clear
12:53 AM -5.8 °F - -11.2 °F 77% 30.27 in 10.0 mi Calm Calm - N/A   Clear
1:13 AM -7.6 °F - -13.0 °F 77% 30.27 in 10.0 mi Calm Calm - N/A   Clear
1:33 AM -7.6 °F - -13.0 °F 77% 30.27 in 10.0 mi Calm Calm - N/A   Clear
1:53 AM -7.6 °F - -14.8 °F 71% 30.27 in 10.0 mi Calm Calm - N/A   Clear
2:13 AM -9.4 °F - -14.8 °F 77% 30.27 in 10.0 mi Calm Calm - N/A   Scattered Clouds
2:33 AM -9.4 °F - -16.6 °F 71% 30.28 in 10.0 mi Calm Calm - N/A   Scattered Clouds
2:53 AM -11.2 °F - -16.6 °F 77% 30.28 in 10.0 mi Calm Calm - N/A   Mostly Cloudy
3:13 AM -9.4 °F - -16.6 °F 71% 30.27 in 5.0 mi Calm Calm - N/A   Overcast
3:33 AM -9.4 °F - -16.6 °F 71% 30.27 in 0.5 mi Calm Calm - N/A   Haze
3:53 AM -11.2 °F - -16.6 °F 77% 30.28 in 7.0 mi Calm Calm - N/A   Overcast
4:13 AM -7.6 °F - -11.2 °F 84% 30.28 in 10.0 mi Calm Calm - N/A   Overcast
4:33 AM -5.8 °F - -9.4 °F 84% 30.28 in 10.0 mi Calm Calm - N/A   Overcast
4:53 AM -4.0 °F - -7.6 °F 85% 30.28 in 10.0 mi Calm Calm - N/A   Overcast
5:13 AM -2.2 °F - -7.6 °F 78% 30.28 in 10.0 mi Calm Calm - N/A   Overcast
5:53 AM -0.4 °F - -5.8 °F 78% 30.29 in 10.0 mi Calm Calm - N/A   Overcast
6:13 AM -0.4 °F - -4.0 °F 85% 30.28 in 10.0 mi Calm Calm - N/A   Overcast
6:33 AM 1.4 °F - -4.0 °F 78% 30.29 in 10.0 mi Calm Calm - N/A   Overcast
6:53 AM 1.4 °F - -4.0 °F 78% 30.29 in 10.0 mi Calm Calm - N/A   Overcast
7:13 AM -0.4 °F - -5.8 °F 78% 30.30 in 7.0 mi Calm Calm - N/A   Scattered Clouds
7:33 AM -2.2 °F - -5.8 °F 85% 30.30 in 10.0 mi Calm Calm - N/A   Mostly Cloudy
7:53 AM -2.2 °F - -5.8 °F 85% 30.30 in 10.0 mi Calm Calm - N/A   Overcast
8:13 AM -0.4 °F - -4.0 °F 85% 30.30 in 10.0 mi Calm Calm - N/A   Overcast
8:33 AM -0.4 °F - -4.0 °F 85% 30.30 in 10.0 mi Calm Calm - N/A   Overcast
8:53 AM 3.2 °F - -0.4 °F 85% 30.30 in 10.0 mi Calm Calm - N/A   Overcast
9:14 AM 6.8 °F - 1.4 °F 79% 30.30 in 10.0 mi Calm Calm - N/A   Overcast
9:33 AM 10.4 °F - 6.8 °F 85% 30.30 in 10.0 mi Calm Calm - N/A   Overcast
9:53 AM 10.4 °F 4.0 °F 6.8 °F 85% 30.30 in 10.0 mi SSW 3.5 mph - N/A   Mostly Cloudy
10:13 AM 12.2 °F - 8.6 °F 85% 30.30 in 10.0 mi Calm Calm - N/A   Clear
10:58 AM 19.4 °F 8.6 °F 15.8 °F 86% 30.30 in 10.0 mi South 9.2 mph - N/A   Clear
11:13 AM 19.4 °F 8.6 °F 15.8 °F 86% 30.30 in 10.0 mi South 9.2 mph - N/A   Clear
11:33 AM 21.2 °F 10.1 °F 15.8 °F 80% 30.29 in 10.0 mi South 10.4 mph - N/A   Clear
11:53 AM 23.0 °F 12.4 °F 15.8 °F 74% 30.29 in 10.0 mi SSE 10.4 mph - N/A   Scattered Clouds
12:13 PM 23.0 °F 11.7 °F 14.0 °F 68% 30.28 in 10.0 mi South 11.5 mph - N/A   Scattered Clouds
12:33 PM 24.8 °F 14.6 °F 14.0 °F 64% 30.27 in 10.0 mi South 10.4 mph - N/A   Clear
12:53 PM 24.8 °F 15.3 °F 14.0 °F 64% 30.27 in 10.0 mi South 9.2 mph - N/A   Clear
1:13 PM 21.2 °F 11.7 °F 12.2 °F 68% 30.26 in 10.0 mi South 8.1 mph - N/A   Clear
1:33 PM 24.8 °F 16.9 °F 14.0 °F 64% 30.26 in 10.0 mi South 6.9 mph - N/A   Clear
1:53 PM 24.8 °F 15.3 °F 12.2 °F 59% 30.25 in 10.0 mi South 9.2 mph - N/A   Clear
2:13 PM 24.8 °F 17.9 °F 12.2 °F 59% 30.25 in 10.0 mi SSE 5.8 mph - N/A   Clear
2:33 PM 24.8 °F 16.9 °F 14.0 °F 64% 30.23 in 10.0 mi SSE 6.9 mph - N/A   Clear
2:53 PM 24.8 °F 16.9 °F 12.2 °F 59% 30.23 in 10.0 mi SSE 6.9 mph - N/A   Clear
3:13 PM 24.8 °F 16.1 °F 12.2 °F 59% 30.22 in 10.0 mi South 8.1 mph - N/A   Clear
3:33 PM 24.8 °F 17.9 °F 12.2 °F 59% 30.21 in 10.0 mi SSE 5.8 mph - N/A   Clear
3:53 PM 26.6 °F 17.5 °F 12.2 °F 55% 30.21 in 10.0 mi SSE 9.2 mph - N/A   Clear
4:13 PM 24.8 °F 15.3 °F 12.2 °F 59% 30.20 in 10.0 mi South 9.2 mph - N/A   Clear
4:33 PM 24.8 °F 16.1 °F 12.2 °F 59% 30.20 in 10.0 mi South 8.1 mph - N/A   Clear
4:53 PM 24.8 °F 17.9 °F 12.2 °F 59% 30.19 in 10.0 mi South 5.8 mph - N/A   Clear
5:13 PM 24.8 °F 16.9 °F 12.2 °F 59% 30.19 in 10.0 mi SSE 6.9 mph - N/A   Clear
5:33 PM 23.0 °F 15.8 °F 12.2 °F 63% 30.19 in 10.0 mi SE 5.8 mph - N/A   Clear
5:53 PM 23.0 °F 17.0 °F 12.2 °F 63% 30.18 in 10.0 mi SE 4.6 mph - N/A   Clear
6:13 PM 21.2 °F 13.6 °F 12.2 °F 68% 30.18 in 10.0 mi SE 5.8 mph - N/A   Clear
6:33 PM 21.2 °F 11.7 °F 14.0 °F 74% 30.18 in 10.0 mi SE 8.1 mph - N/A   Mostly Cloudy
6:53 PM 21.2 °F 11.7 °F 12.2 °F 68% 30.18 in 10.0 mi SE 8.1 mph - N/A   Scattered Clouds
7:14 PM 19.4 °F 9.5 °F 12.2 °F 74% 30.17 in 10.0 mi SE 8.1 mph - N/A   Clear
7:53 PM 19.4 °F 7.2 °F 12.2 °F 74% 30.16 in 10.0 mi SE 11.5 mph - N/A   Scattered Clouds
8:13 PM 19.4 °F 11.5 °F 12.2 °F 74% 30.16 in 10.0 mi SE 5.8 mph - N/A   Mostly Cloudy
8:33 PM 19.4 °F 9.5 °F 12.2 °F 74% 30.15 in 10.0 mi SSE 8.1 mph - N/A   Overcast
8:53 PM 19.4 °F 9.5 °F 12.2 °F 74% 30.16 in 10.0 mi SSE 8.1 mph 16.1 mph N/A   Overcast
9:13 PM 19.4 °F 7.9 °F 12.2 °F 74% 30.16 in 10.0 mi SSE 10.4 mph - N/A   Scattered Clouds
9:33 PM 19.4 °F 7.2 °F 12.2 °F 74% 30.15 in 10.0 mi SSE 11.5 mph 16.1 mph N/A   Mostly Cloudy
9:53 PM 19.4 °F 8.6 °F 12.2 °F 74% 30.14 in 10.0 mi SSE 9.2 mph - N/A   Overcast
10:13 PM 19.4 °F 9.5 °F 12.2 °F 74% 30.14 in 10.0 mi SSE 8.1 mph 16.1 mph N/A   Overcast
10:33 PM 17.6 °F 8.2 °F 10.4 °F 73% 30.13 in 10.0 mi SSE 6.9 mph 16.1 mph N/A   Scattered Clouds
10:53 PM 17.6 °F 5.7 °F 10.4 °F 73% 30.13 in 10.0 mi SSE 10.4 mph - N/A   Scattered Clouds
11:13 PM 17.6 °F 5.7 °F 12.2 °F 79% 30.12 in 10.0 mi SSE 10.4 mph - N/A   Mostly Cloudy
11:33 PM 17.6 °F 5.7 °F 12.2 °F 79% 30.11 in 10.0 mi SSE 10.4 mph - N/A   Mostly Cloudy
11:53 PM 19.4 °F 7.9 °F 12.2 °F 74% 30.11 in 10.0 mi SSE 10.4 mph - N/A   Overcast